Location: *
(51.0333°S, 178.4667°E)
Time: 22:47:57
(UTC+00:00)

STARLINK-66 - Pass Details

Date: 15 November 2019
Orbit: 529 x 530 km, 53.0° (Epoch: 06 December)

Event Time Altitude Azimuth Distance (km) Brightness Sun altitude
Rises 10:28:16 0° 256° (WSW) 2,687 7.6 -18.2°
Reaches altitude 10° 10:30:30 10° 254° (WSW) 1,796 6.7 -18.3°
Maximum altitude 10:34:35 77° 167° (SSE) 555 3.6 -18.5°
Enters shadow 10:37:05 22° 83° (E) 1,189 5.1 -18.6°
